N129YA LOWW-EHRD

Flight info

Callsign N129YA
Flight time 1h 31m
Altitude 34000
Route MEDIX DCT LAMSI/N0461F400 L604 RUDNO DCT MAPOX L604 BIGGE T281 HMM L602 RKN
Aircraft B737/M-SDE2E3FGHIRWXY/LB1

Departure

Time 2026-04-22 19:23
Airport Vienna International Airport (LOWW)

Arrival

Time 2026-04-22 20:55
Airport Rotterdam The Hague Airport (EHRD)
Time Latitude Longitude Altitude Speed Heading
2026-04-22 18:47 48.12594 16.53616 609 ft 0 kts 295°
2026-04-22 19:12 48.12602 16.53589 616 ft 5 kts 291°
2026-04-22 19:12 48.12593 16.53542 621 ft 6 kts 229°
2026-04-22 19:13 48.12552 16.53515 608 ft 8 kts 192°
2026-04-22 19:13 48.12488 16.53499 608 ft 11 kts 189°
2026-04-22 19:13 48.12425 16.53541 608 ft 12 kts 122°
2026-04-22 19:13 48.12382 16.53669 608 ft 16 kts 115°
2026-04-22 19:14 48.12329 16.53835 611 ft 19 kts 115°
2026-04-22 19:14 48.12301 16.53920 618 ft 1 kts 115°
2026-04-22 19:14 48.12297 16.53930 614 ft 3 kts 115°
2026-04-22 19:14 48.12270 16.54016 608 ft 15 kts 115°
2026-04-22 19:15 48.12207 16.54211 608 ft 26 kts 116°
2026-04-22 19:15 48.12124 16.54464 608 ft 28 kts 115°
2026-04-22 19:15 48.12042 16.54719 619 ft 26 kts 116°
2026-04-22 19:15 48.11965 16.54953 608 ft 24 kts 116°
2026-04-22 19:16 48.11906 16.55135 610 ft 14 kts 116°
2026-04-22 19:16 48.11867 16.55254 615 ft 12 kts 116°
2026-04-22 19:16 48.11836 16.55350 611 ft 9 kts 116°
2026-04-22 19:16 48.11812 16.55423 621 ft 8 kts 116°
2026-04-22 19:17 48.11783 16.55514 610 ft 13 kts 116°
2026-04-22 19:17 48.11735 16.55660 616 ft 18 kts 116°
2026-04-22 19:17 48.11675 16.55846 611 ft 21 kts 116°
2026-04-22 19:17 48.11610 16.56045 613 ft 21 kts 116°
2026-04-22 19:18 48.11554 16.56214 620 ft 12 kts 116°
2026-04-22 19:18 48.11542 16.56251 619 ft 1 kts 116°
2026-04-22 19:18 48.11530 16.56288 610 ft 8 kts 116°
2026-04-22 19:18 48.11495 16.56396 613 ft 13 kts 116°
2026-04-22 19:19 48.11462 16.56498 611 ft 10 kts 116°
2026-04-22 19:19 48.11433 16.56588 613 ft 9 kts 116°
2026-04-22 19:19 48.11406 16.56672 612 ft 8 kts 116°
2026-04-22 19:19 48.11388 16.56727 612 ft 0 kts 116°
2026-04-22 19:20 48.11375 16.56768 612 ft 11 kts 116°
2026-04-22 19:21 48.11321 16.56932 611 ft 23 kts 116°
2026-04-22 19:21 48.11242 16.57176 618 ft 26 kts 115°
2026-04-22 19:21 48.11166 16.57410 618 ft 23 kts 116°
2026-04-22 19:21 48.11110 16.57579 616 ft 11 kts 116°
2026-04-22 19:22 48.11065 16.57647 615 ft 9 kts 166°
2026-04-22 19:22 48.11024 16.57633 608 ft 4 kts 205°
2026-04-22 19:22 48.10975 16.57596 616 ft 15 kts 206°
2026-04-22 19:22 48.10925 16.57499 608 ft 6 kts 279°
2026-04-22 19:23 48.10996 16.57282 608 ft 70 kts 296°
2026-04-22 19:23 48.11372 16.56139 686 ft 165 kts 296°
2026-04-22 19:23 48.11898 16.54534 2083 ft 167 kts 301°
2026-04-22 19:23 48.12383 16.52919 3499 ft 183 kts 293°
2026-04-22 19:24 48.12286 16.50881 4344 ft 216 kts 250°
2026-04-22 19:24 48.11208 16.49232 4860 ft 230 kts 209°
2026-04-22 19:24 48.09699 16.48277 5086 ft 240 kts 205°
2026-04-22 19:24 48.08169 16.47258 5934 ft 239 kts 206°
2026-04-22 19:25 48.06661 16.46151 6730 ft 251 kts 219°
2026-04-22 19:25 48.05357 16.44374 7354 ft 262 kts 227°
2026-04-22 19:25 48.04008 16.42491 8171 ft 268 kts 225°
2026-04-22 19:25 48.02617 16.40611 9031 ft 272 kts 225°
2026-04-22 19:26 48.01435 16.38446 9841 ft 270 kts 251°
2026-04-22 19:26 48.01216 16.35741 10637 ft 262 kts 282°
2026-04-22 19:26 48.01678 16.33126 11371 ft 262 kts 293°
2026-04-22 19:26 48.02304 16.30541 12077 ft 267 kts 295°
2026-04-22 19:27 48.02969 16.27927 12817 ft 271 kts 296°
2026-04-22 19:27 48.03648 16.25265 13551 ft 276 kts 296°
2026-04-22 19:27 48.04332 16.22562 14250 ft 280 kts 296°
2026-04-22 19:27 48.05020 16.19821 14896 ft 284 kts 296°
2026-04-22 19:28 48.05711 16.17043 15547 ft 287 kts 296°
2026-04-22 19:28 48.06408 16.14222 16191 ft 291 kts 296°
2026-04-22 19:28 48.07112 16.11360 16823 ft 294 kts 296°
2026-04-22 19:28 48.07821 16.08466 17455 ft 298 kts 296°
2026-04-22 19:29 48.08537 16.05535 18081 ft 302 kts 296°
2026-04-22 19:29 48.09259 16.02569 18661 ft 306 kts 296°
2026-04-22 19:29 48.09989 15.99564 19179 ft 310 kts 296°
2026-04-22 19:29 48.10728 15.96514 19715 ft 313 kts 296°
2026-04-22 19:30 48.11222 15.94476 20061 ft 316 kts 296°
2026-04-22 19:30 48.12228 15.90314 20772 ft 320 kts 296°
2026-04-22 19:30 48.12989 15.87159 21270 ft 324 kts 295°
2026-04-22 19:30 48.13759 15.83962 21783 ft 328 kts 295°
2026-04-22 19:31 48.14536 15.80728 22294 ft 332 kts 295°
2026-04-22 19:31 48.15323 15.77452 22783 ft 336 kts 295°
2026-04-22 19:31 48.16116 15.74142 23284 ft 339 kts 295°
2026-04-22 19:31 48.16908 15.70835 23760 ft 343 kts 295°
2026-04-22 19:32 48.17719 15.67442 24141 ft 349 kts 295°
2026-04-22 19:32 48.18552 15.63960 24323 ft 364 kts 295°
2026-04-22 19:32 48.19434 15.60286 24425 ft 386 kts 295°
2026-04-22 19:32 48.20370 15.56379 24573 ft 409 kts 294°
2026-04-22 19:33 48.21351 15.52265 24710 ft 430 kts 294°
2026-04-22 19:33 48.22377 15.47938 24845 ft 449 kts 294°
2026-04-22 19:33 48.23432 15.43468 25140 ft 460 kts 293°
2026-04-22 19:33 48.24556 15.38934 25612 ft 465 kts 296°
2026-04-22 19:34 48.25854 15.34473 26110 ft 469 kts 299°
2026-04-22 19:34 48.27241 15.30026 26610 ft 473 kts 300°
2026-04-22 19:34 48.28669 15.25547 27051 ft 479 kts 300°
2026-04-22 19:34 48.30112 15.21004 27503 ft 484 kts 300°
2026-04-22 19:35 48.31559 15.16396 27941 ft 490 kts 299°
2026-04-22 19:35 48.33006 15.11726 28343 ft 495 kts 299°
2026-04-22 19:35 48.33961 15.08614 28600 ft 498 kts 299°
2026-04-22 19:35 48.35900 15.02247 29127 ft 504 kts 298°
2026-04-22 19:36 48.37360 14.97426 29493 ft 508 kts 298°
2026-04-22 19:36 48.38824 14.92576 29839 ft 512 kts 298°
2026-04-22 19:36 48.40300 14.87681 30266 ft 514 kts 298°
2026-04-22 19:36 48.41754 14.82846 30750 ft 512 kts 298°
2026-04-22 19:37 48.43205 14.78005 31450 ft 504 kts 298°
2026-04-22 19:37 48.44636 14.73227 32219 ft 496 kts 298°
2026-04-22 19:37 48.46041 14.68527 32957 ft 489 kts 298°
2026-04-22 19:37 48.47445 14.63830 33598 ft 483 kts 297°
2026-04-22 19:38 48.48801 14.59290 34180 ft 480 kts 297°
2026-04-22 19:38 48.51547 14.50085 34280 ft 481 kts 297°
2026-04-22 19:39 48.54274 14.40896 34290 ft 479 kts 297°
2026-04-22 19:39 48.56990 14.31704 34294 ft 478 kts 297°
2026-04-22 19:40 48.59692 14.22526 34292 ft 478 kts 297°
2026-04-22 19:40 48.62384 14.13345 34294 ft 477 kts 297°
2026-04-22 19:41 48.65063 14.04176 34291 ft 477 kts 297°
2026-04-22 19:41 48.67739 13.94981 34287 ft 477 kts 297°
2026-04-22 19:42 48.70404 13.85789 34313 ft 477 kts 297°
2026-04-22 19:42 48.73066 13.76563 34288 ft 478 kts 297°
2026-04-22 19:43 48.77054 13.62701 34293 ft 479 kts 297°
2026-04-22 19:43 48.79707 13.53427 34303 ft 480 kts 296°
2026-04-22 19:44 48.82342 13.44180 34297 ft 481 kts 296°
2026-04-22 19:44 48.84990 13.34853 34290 ft 481 kts 296°
2026-04-22 19:45 48.87814 13.25675 34292 ft 477 kts 305°
2026-04-22 19:45 48.91929 13.17930 34305 ft 469 kts 319°
2026-04-22 19:46 48.96597 13.11001 34296 ft 469 kts 320°
2026-04-22 19:46 49.01254 13.04027 34292 ft 469 kts 319°
2026-04-22 19:47 49.05873 12.96981 34288 ft 470 kts 319°
2026-04-22 19:47 49.10483 12.89899 34292 ft 469 kts 319°
2026-04-22 19:48 49.15050 12.82875 34289 ft 470 kts 319°
2026-04-22 19:48 49.19652 12.75774 34298 ft 470 kts 319°
2026-04-22 19:49 49.24250 12.68650 34293 ft 471 kts 319°
2026-04-22 19:49 49.28845 12.61511 34293 ft 471 kts 319°
2026-04-22 19:50 49.33434 12.54349 34309 ft 472 kts 317°
2026-04-22 19:50 49.37666 12.46585 34303 ft 476 kts 312°
2026-04-22 19:51 49.41049 12.39887 34296 ft 477 kts 311°
2026-04-22 19:51 49.45112 12.31816 34299 ft 477 kts 312°
2026-04-22 19:52 49.49224 12.23729 34399 ft 483 kts 312°
2026-04-22 19:52 49.51298 12.19666 34748 ft 481 kts 312°
2026-04-22 19:52 49.53353 12.15637 35174 ft 477 kts 312°
2026-04-22 19:53 49.55395 12.11626 35589 ft 474 kts 312°
2026-04-22 19:53 49.57428 12.07632 35935 ft 473 kts 312°
2026-04-22 19:53 49.59452 12.03650 36252 ft 472 kts 312°
2026-04-22 19:53 49.61473 11.99669 36585 ft 471 kts 311°
2026-04-22 19:54 49.63487 11.95692 36935 ft 469 kts 311°
2026-04-22 19:54 49.65491 11.91730 37291 ft 467 kts 311°
2026-04-22 19:54 49.67484 11.87782 37623 ft 466 kts 311°
2026-04-22 19:54 49.69476 11.83831 37962 ft 465 kts 311°
2026-04-22 19:55 49.71460 11.79890 38296 ft 463 kts 311°
2026-04-22 19:55 49.73434 11.75963 38643 ft 462 kts 311°
2026-04-22 19:55 49.75402 11.72043 38970 ft 460 kts 311°
2026-04-22 19:55 49.77365 11.68125 39217 ft 460 kts 311°
2026-04-22 19:56 49.79324 11.64211 39417 ft 460 kts 311°
2026-04-22 19:56 49.81285 11.60287 39607 ft 461 kts 311°
2026-04-22 19:56 49.83243 11.56365 39798 ft 461 kts 311°
2026-04-22 19:56 49.85201 11.52435 40016 ft 460 kts 311°
2026-04-22 19:57 49.87133 11.48551 40223 ft 460 kts 310°
2026-04-22 19:57 49.89086 11.44620 40306 ft 462 kts 310°
2026-04-22 19:57 49.93013 11.36696 40307 ft 461 kts 310°
2026-04-22 19:58 49.96904 11.28820 40313 ft 459 kts 310°
2026-04-22 19:58 50.00774 11.20962 40318 ft 457 kts 310°
2026-04-22 20:00 50.14264 10.93400 40324 ft 458 kts 310°
2026-04-22 20:01 50.18120 10.85466 40316 ft 459 kts 310°
2026-04-22 20:01 50.21976 10.77510 40335 ft 459 kts 310°
2026-04-22 20:02 50.25830 10.69533 40339 ft 460 kts 310°
2026-04-22 20:02 50.29690 10.61519 40333 ft 461 kts 310°
2026-04-22 20:03 50.33538 10.53504 40333 ft 461 kts 310°
2026-04-22 20:03 50.37389 10.45461 40338 ft 461 kts 310°
2026-04-22 20:04 50.41233 10.37405 40335 ft 462 kts 310°
2026-04-22 20:04 50.45075 10.29331 40337 ft 462 kts 310°
2026-04-22 20:05 50.48915 10.21235 40341 ft 462 kts 309°
2026-04-22 20:05 50.52750 10.13126 40335 ft 463 kts 309°
2026-04-22 20:06 50.56562 10.05040 40330 ft 463 kts 309°
2026-04-22 20:06 50.60389 9.96895 40329 ft 462 kts 309°
2026-04-22 20:07 50.64208 9.88745 40329 ft 462 kts 309°
2026-04-22 20:07 50.68024 9.80574 40332 ft 462 kts 309°
2026-04-22 20:08 50.71834 9.72391 40329 ft 463 kts 309°
2026-04-22 20:08 50.75638 9.64194 40328 ft 463 kts 309°
2026-04-22 20:09 50.79441 9.55976 40329 ft 463 kts 309°
2026-04-22 20:09 50.83239 9.47739 40332 ft 464 kts 309°
2026-04-22 20:10 50.87037 9.39480 40334 ft 464 kts 309°
2026-04-22 20:10 50.90804 9.31261 40340 ft 464 kts 309°
2026-04-22 20:11 50.94591 9.22972 40342 ft 464 kts 309°
2026-04-22 20:11 50.98376 9.14660 40339 ft 465 kts 309°
2026-04-22 20:12 51.02157 9.06330 40340 ft 465 kts 308°
2026-04-22 20:12 51.05321 8.99340 40349 ft 465 kts 308°
2026-04-22 20:13 51.09707 8.89617 40347 ft 465 kts 308°
2026-04-22 20:13 51.13478 8.81245 40341 ft 465 kts 309°
2026-04-22 20:14 51.17483 8.73142 40351 ft 464 kts 312°
2026-04-22 20:14 51.21578 8.65196 40352 ft 464 kts 312°
2026-04-22 20:15 51.25620 8.57229 40345 ft 464 kts 311°
2026-04-22 20:15 51.29659 8.49181 40351 ft 464 kts 311°
2026-04-22 20:16 51.33874 8.41390 40340 ft 461 kts 321°
2026-04-22 20:16 51.38761 8.34776 40352 ft 460 kts 323°
2026-04-22 20:17 51.43707 8.28258 40350 ft 461 kts 323°
2026-04-22 20:17 51.48628 8.21664 40352 ft 461 kts 322°
2026-04-22 20:18 51.53529 8.15014 40350 ft 461 kts 322°
2026-04-22 20:18 51.58424 8.08336 40350 ft 462 kts 322°
2026-04-22 20:19 51.63330 8.01628 40355 ft 462 kts 322°
2026-04-22 20:19 51.68196 7.94958 40356 ft 462 kts 322°
2026-04-22 20:20 51.73091 7.88228 40353 ft 462 kts 322°
2026-04-22 20:20 51.77988 7.81478 40352 ft 463 kts 322°
2026-04-22 20:21 51.82872 7.74716 40361 ft 463 kts 320°
2026-04-22 20:21 51.87006 7.66677 40361 ft 469 kts 302°
2026-04-22 20:22 51.89903 7.57183 40366 ft 471 kts 297°
2026-04-22 20:22 51.92658 7.47544 40366 ft 471 kts 297°
2026-04-22 20:23 51.95453 7.37935 40327 ft 472 kts 297°
2026-04-22 20:23 51.96880 7.33087 39758 ft 477 kts 297°
2026-04-22 20:23 51.98304 7.28248 39094 ft 475 kts 298°
2026-04-22 20:23 51.99726 7.23409 38224 ft 475 kts 298°
2026-04-22 20:24 52.01146 7.18571 37403 ft 474 kts 297°
2026-04-22 20:24 52.02557 7.13745 36603 ft 473 kts 297°
2026-04-22 20:24 52.03964 7.08922 35738 ft 473 kts 297°
2026-04-22 20:24 52.05372 7.04089 34832 ft 475 kts 297°
2026-04-22 20:25 52.06787 6.99222 33737 ft 477 kts 297°
2026-04-22 20:25 52.08198 6.94324 32565 ft 479 kts 296°
2026-04-22 20:25 52.09581 6.89392 31389 ft 480 kts 296°
2026-04-22 20:25 52.10958 6.84437 30177 ft 480 kts 296°
2026-04-22 20:26 52.12342 6.79498 28776 ft 480 kts 297°
2026-04-22 20:26 52.13766 6.74613 27486 ft 476 kts 296°
2026-04-22 20:26 52.15015 6.69613 26244 ft 475 kts 292°
2026-04-22 20:26 52.16107 6.64585 25191 ft 468 kts 291°
2026-04-22 20:27 52.17143 6.59592 24163 ft 461 kts 291°
2026-04-22 20:27 52.18168 6.54685 22989 ft 455 kts 292°
2026-04-22 20:27 52.19199 6.49858 21932 ft 446 kts 292°
2026-04-22 20:27 52.20224 6.45152 20923 ft 437 kts 293°
2026-04-22 20:28 52.21240 6.40529 19921 ft 429 kts 293°
2026-04-22 20:28 52.22241 6.35986 18935 ft 422 kts 294°
2026-04-22 20:28 52.23226 6.31510 17864 ft 416 kts 294°
2026-04-22 20:28 52.24192 6.27096 16858 ft 409 kts 293°
2026-04-22 20:29 52.25136 6.22765 15932 ft 401 kts 293°
2026-04-22 20:29 52.26058 6.18517 15010 ft 395 kts 293°
2026-04-22 20:29 52.26968 6.14317 14051 ft 390 kts 293°
2026-04-22 20:29 52.27868 6.10158 13018 ft 386 kts 292°
2026-04-22 20:30 52.28746 6.06094 12054 ft 382 kts 292°
2026-04-22 20:30 52.29635 6.01974 11131 ft 378 kts 291°
2026-04-22 20:30 52.30477 5.98051 10990 ft 353 kts 291°
2026-04-22 20:30 52.31264 5.94373 10824 ft 332 kts 291°
2026-04-22 20:31 52.32007 5.90904 10681 ft 314 kts 291°
2026-04-22 20:31 52.32709 5.87620 10559 ft 298 kts 291°
2026-04-22 20:31 52.33368 5.84538 10440 ft 284 kts 291°
2026-04-22 20:31 52.34007 5.81546 10183 ft 276 kts 291°
2026-04-22 20:32 52.34637 5.78599 9807 ft 273 kts 291°
2026-04-22 20:32 52.35262 5.75670 9412 ft 272 kts 291°
2026-04-22 20:32 52.35880 5.72768 9024 ft 268 kts 291°
2026-04-22 20:32 52.36487 5.69911 8644 ft 263 kts 291°
2026-04-22 20:33 52.37079 5.67112 8274 ft 258 kts 291°
2026-04-22 20:33 52.37662 5.64357 7907 ft 254 kts 291°
2026-04-22 20:33 52.38051 5.62514 7667 ft 252 kts 291°
2026-04-22 20:33 52.38457 5.59741 7429 ft 251 kts 272°
2026-04-22 20:34 52.38276 5.56892 7402 ft 259 kts 263°
2026-04-22 20:34 52.37983 5.53943 7366 ft 270 kts 262°
2026-04-22 20:34 52.37669 5.50901 7315 ft 274 kts 262°
2026-04-22 20:34 52.37260 5.47861 7299 ft 275 kts 247°
2026-04-22 20:35 52.36188 5.45292 7336 ft 274 kts 231°
2026-04-22 20:35 52.34960 5.42889 7322 ft 276 kts 230°
2026-04-22 20:35 52.33713 5.40499 7321 ft 276 kts 230°
2026-04-22 20:35 52.32467 5.38098 7320 ft 277 kts 230°
2026-04-22 20:36 52.31225 5.35689 7314 ft 277 kts 230°
2026-04-22 20:36 52.29989 5.33274 7314 ft 277 kts 231°
2026-04-22 20:36 52.28758 5.30855 7309 ft 276 kts 231°
2026-04-22 20:36 52.27541 5.28456 7179 ft 272 kts 231°
2026-04-22 20:37 52.26346 5.26094 6810 ft 267 kts 231°
2026-04-22 20:37 52.25164 5.23755 6302 ft 268 kts 230°
2026-04-22 20:37 52.23978 5.21409 5792 ft 268 kts 230°
2026-04-22 20:37 52.22792 5.19061 5531 ft 268 kts 230°
2026-04-22 20:38 52.21605 5.16711 5436 ft 269 kts 230°
2026-04-22 20:38 52.20417 5.14362 5398 ft 267 kts 230°
2026-04-22 20:38 52.19240 5.12034 5396 ft 266 kts 230°
2026-04-22 20:38 52.18055 5.09692 5399 ft 268 kts 230°
2026-04-22 20:39 52.16869 5.07350 5400 ft 268 kts 230°
2026-04-22 20:39 52.15700 5.05044 5394 ft 268 kts 230°
2026-04-22 20:39 52.14518 5.02714 5390 ft 268 kts 230°
2026-04-22 20:39 52.13340 5.00395 5215 ft 264 kts 230°
2026-04-22 20:40 52.12172 4.98096 4741 ft 262 kts 230°
2026-04-22 20:40 52.11022 4.95836 4240 ft 263 kts 229°
2026-04-22 20:40 52.09860 4.93552 3810 ft 260 kts 229°
2026-04-22 20:40 52.08716 4.91307 3385 ft 256 kts 229°
2026-04-22 20:41 52.07577 4.89073 3070 ft 258 kts 228°
2026-04-22 20:41 52.06424 4.86816 3030 ft 259 kts 229°
2026-04-22 20:41 52.05276 4.84569 3018 ft 258 kts 228°
2026-04-22 20:41 52.04133 4.82332 3009 ft 258 kts 228°
2026-04-22 20:42 52.02987 4.80093 3008 ft 258 kts 228°
2026-04-22 20:42 52.01841 4.77856 3012 ft 258 kts 228°
2026-04-22 20:42 52.00694 4.75618 3020 ft 258 kts 228°
2026-04-22 20:42 51.99549 4.73388 3016 ft 258 kts 228°
2026-04-22 20:43 51.98401 4.71152 3016 ft 258 kts 228°
2026-04-22 20:43 51.97251 4.68916 3018 ft 258 kts 228°
2026-04-22 20:43 51.96106 4.66690 2996 ft 256 kts 228°
2026-04-22 20:43 51.94976 4.64495 2663 ft 253 kts 227°
2026-04-22 20:44 51.93843 4.62298 2203 ft 253 kts 227°
2026-04-22 20:44 51.92741 4.60159 2063 ft 241 kts 227°
2026-04-22 20:44 51.91673 4.58090 2025 ft 238 kts 227°
2026-04-22 20:44 51.90616 4.56046 2031 ft 237 kts 227°
2026-04-22 20:45 51.89548 4.53981 2029 ft 239 kts 227°
2026-04-22 20:45 51.88481 4.51922 2029 ft 239 kts 227°
2026-04-22 20:45 51.87415 4.49864 2029 ft 237 kts 227°
2026-04-22 20:45 51.86367 4.47840 2033 ft 233 kts 227°
2026-04-22 20:46 51.84251 4.43765 2025 ft 239 kts 227°
2026-04-22 20:46 51.83184 4.41710 2016 ft 238 kts 227°
2026-04-22 20:46 51.82119 4.39661 2011 ft 237 kts 227°
2026-04-22 20:47 51.81074 4.37651 2015 ft 231 kts 227°
2026-04-22 20:47 51.80044 4.35671 2003 ft 229 kts 227°
2026-04-22 20:47 51.79024 4.33715 2008 ft 227 kts 226°
2026-04-22 20:47 51.78007 4.31766 2005 ft 227 kts 227°
2026-04-22 20:48 51.76984 4.29809 2005 ft 227 kts 227°
2026-04-22 20:48 51.76039 4.27774 1993 ft 230 kts 243°
2026-04-22 20:48 51.75796 4.25247 2007 ft 231 kts 279°
2026-04-22 20:48 51.76454 4.22981 2001 ft 226 kts 317°
2026-04-22 20:49 51.77720 4.21570 2018 ft 221 kts 338°
2026-04-22 20:49 51.79112 4.20510 2008 ft 221 kts 341°
2026-04-22 20:49 51.80569 4.19923 2007 ft 213 kts
2026-04-22 20:49 51.82037 4.20105 2014 ft 212 kts 12°
2026-04-22 20:50 51.83501 4.20400 2019 ft 212 kts 12°
2026-04-22 20:50 51.84964 4.20694 2009 ft 212 kts 12°
2026-04-22 20:50 51.86383 4.21189 1997 ft 205 kts 32°
2026-04-22 20:50 51.87304 4.22818 2029 ft 197 kts 63°
2026-04-22 20:51 51.88009 4.24724 2018 ft 197 kts 60°
2026-04-22 20:51 51.88756 4.26593 2028 ft 198 kts 60°
2026-04-22 20:51 51.89480 4.28405 1998 ft 178 kts 60°
2026-04-22 20:51 51.90101 4.29969 1902 ft 156 kts 60°
2026-04-22 20:52 51.90641 4.31330 1739 ft 133 kts 60°
2026-04-22 20:52 51.91109 4.32507 1560 ft 116 kts 61°
2026-04-22 20:52 51.91545 4.33606 1411 ft 117 kts 60°
2026-04-22 20:52 51.91988 4.34711 1262 ft 117 kts 60°
2026-04-22 20:53 51.92408 4.35835 1110 ft 116 kts 62°
2026-04-22 20:53 51.92862 4.36951 976 ft 121 kts 56°
2026-04-22 20:53 51.93325 4.38113 791 ft 123 kts 59°
2026-04-22 20:53 51.93792 4.39274 606 ft 120 kts 56°
2026-04-22 20:54 51.94234 4.40364 437 ft 116 kts 57°
2026-04-22 20:54 51.94669 4.41478 292 ft 119 kts 56°
2026-04-22 20:54 51.95128 4.42622 110 ft 122 kts 56°
2026-04-22 20:54 51.95579 4.43746 0 ft 110 kts 56°
2026-04-22 20:55 51.95918 4.44597 -2 ft 70 kts 57°
2026-04-22 20:55 51.96116 4.45094 1 ft 35 kts 57°
2026-04-22 20:55 51.96148 4.45300 1 ft 15 kts 114°
2026-04-22 20:55 51.96080 4.45399 0 ft 12 kts 169°
2026-04-22 20:56 51.96031 4.45374 1 ft 6 kts 219°
2026-04-22 20:56 51.96008 4.45311 0 ft 8 kts 240°
2026-04-22 20:56 51.95970 4.45219 0 ft 11 kts 237°
2026-04-22 20:56 51.95923 4.45100 0 ft 14 kts 237°
2026-04-22 20:57 51.95855 4.44930 0 ft 21 kts 237°
2026-04-22 20:57 51.95767 4.44708 0 ft 24 kts 237°
2026-04-22 20:57 51.95678 4.44486 0 ft 23 kts 237°
2026-04-22 20:57 51.95590 4.44268 0 ft 24 kts 237°
2026-04-22 20:58 51.95491 4.44021 0 ft 28 kts 236°
2026-04-22 20:58 51.95384 4.43750 0 ft 28 kts 236°
2026-04-22 20:58 51.95301 4.43542 0 ft 14 kts 237°
2026-04-22 20:58 51.95231 4.43523 0 ft 11 kts 153°
2026-04-22 20:59 51.95168 4.43588 0 ft 11 kts 147°
2026-04-22 20:59 51.95131 4.43621 0 ft 2 kts 165°
2026-04-22 20:59 51.95113 4.43614 0 ft 1 kts 210°
2026-04-22 20:59 51.95109 4.43603 0 ft 1 kts 253°
2026-04-22 21:00 51.95134 4.43551 0 ft 9 kts 325°
2026-04-22 21:00 51.95164 4.43511 0 ft 1 kts 294°
2026-04-22 21:00 51.95161 4.43485 0 ft 4 kts 245°
2026-04-22 21:00 51.95162 4.43438 0 ft 4 kts 303°
2026-04-22 21:01 51.95183 4.43412 0 ft 4 kts 326°
2026-04-22 21:01 51.95189 4.43406 1 ft 0 kts 326°